Weather History for Katherine, NT

Change the Weather History Date:

Tuesday, October 1, 2013

  Actual Average Record
Temperature  
Mean Temperature 86 °F -  
Max Temperature 103 °F - - ()
Min Temperature 68 °F - - ()
Cooling Degree Days 20    
Growing Degree Days 36 (Base 50)    
Moisture  
Dew Point 51 °F    
Average Humidity 33    
Maximum Humidity 58    
Minimum Humidity 13    
Precipitation  
Precipitation 0.00 in - - ()
Sea Level Pressure  
Sea Level Pressure 29.89 in    
Wind  
Wind Speed 6 mph ()    
Max Wind Speed 15 mph    
Max Gust Speed -    
Visibility 6.2 miles    
Events      
T = Trace of Precipitation, MM = Missing Value Source: Averaged Metar Reports

Daily Weather History Graph

Daily Weather History Graph

Search for Another Location

Airport:

Trip Planner

Search our weather history database for the weather conditions in past years. The results will help you decide how hot, cold, wet, or windy it might be!

Date:

Astronomy

Oct. 01, 2013 Rise Set
Actual Time 6:23 AM ACST 6:37 PM ACST
Civil Twilight 6:02 AM ACST 6:58 PM ACST
Nautical Twilight 5:37 AM ACST 7:23 PM ACST
Astronomical Twilight 5:12 AM ACST 7:48 PM ACST
Moon 3:25 AM ACST (10/1) 3:25 PM ACST (10/1)
Length of Visible Light 12h 56m
Length of Day
12h 13m
Waning Crescent, 16% of the Moon is Illuminated
Oct 1
Waning Crescent
Oct 5
New
Oct 12
First Quarter
Oct 19
Full
Oct 27
Last Quarter

Hourly Weather History & Observations

Time (ACST) Temp. Heat Index Dew Point Humidity Pressure Visibility Wind Dir Wind Speed Gust Speed Precip Events Conditions
12:00 AM 84.2 °F - 48.2 °F 29% 29.89 in 6.2 mi East 8.1 mph - N/A   Unknown
12:30 AM 84.2 °F - 48.2 °F 29% 29.89 in 6.2 mi ENE 6.9 mph - N/A   Unknown
1:00 AM 82.4 °F - 50.0 °F 32% 29.89 in 6.2 mi NW 11.5 mph - N/A   Unknown
1:30 AM 84.2 °F - 48.2 °F 29% 29.89 in 6.2 mi North 6.9 mph - N/A   Unknown
2:00 AM 84.2 °F - 44.6 °F 25% 29.89 in 6.2 mi North 8.1 mph - N/A   Unknown
2:30 AM 82.4 °F - 46.4 °F 28% 29.89 in 6.2 mi North 4.6 mph - N/A   Unknown
3:00 AM 80.6 °F 80.5 °F 55.4 °F 42% 29.89 in 6.2 mi North 5.8 mph - N/A   Unknown
3:30 AM 77.0 °F - 53.6 °F 44% 29.89 in 6.2 mi NNE 4.6 mph - N/A   Unknown
4:00 AM 73.4 °F - 50.0 °F 44% 29.89 in 6.2 mi Calm Calm - N/A   Unknown
4:30 AM 69.8 °F - 50.0 °F 49% 29.89 in 6.2 mi NNE 2.3 mph - N/A   Unknown
5:00 AM 69.8 °F - 51.8 °F 53% 29.89 in 6.2 mi Calm Calm - N/A   Unknown
5:30 AM 69.8 °F - 51.8 °F 53% 29.92 in 6.2 mi NNE 3.5 mph - N/A   Unknown
6:00 AM 69.8 °F - 50.0 °F 49% 29.92 in 6.2 mi SSE 3.5 mph - N/A   Unknown
6:30 AM 68.0 °F - 51.8 °F 56% 29.95 in 6.2 mi SE 2.3 mph - N/A   Unknown
7:00 AM 69.8 °F - 51.8 °F 53% 29.95 in - SE 3.5 mph - N/A   Clear
7:30 AM 75.2 °F - 55.4 °F 50% 29.95 in 6.2 mi SSE 3.5 mph - N/A   Unknown
8:00 AM 80.6 °F 81.8 °F 62.6 °F 54% 29.98 in - NE 2.3 mph - N/A   Clear
8:30 AM 82.4 °F 84.6 °F 66.2 °F 58% 29.98 in - North 5.8 mph - N/A   Clear
9:00 AM 84 °F - 69 °F 52%  in 6 mi West 1.2 mph - -   Partly Cloudy
9:00 AM 84.2 °F 86.6 °F 66.2 °F 55% 29.98 in - NNW 5.8 mph - N/A   Clear
9:30 AM 86.0 °F 86.1 °F 60.8 °F 43% 29.98 in - NNW 5.8 mph - N/A   Clear
10:00 AM 87.8 °F 87.6 °F 60.8 °F 40% 29.98 in - North 8.1 mph - N/A   Clear
10:30 AM 89.6 °F 88.9 °F 59.0 °F 36% 29.95 in - NNE 10.4 mph - N/A   Clear
11:00 AM 91.4 °F 89.4 °F 55.4 °F 29% 29.95 in - NE 5.8 mph - N/A   Clear
11:30 AM 95.0 °F - 51.8 °F 23% 29.92 in - ENE 8.1 mph - N/A   Clear
12:00 PM 96.8 °F - 51.8 °F 22% 29.92 in - NE 10.4 mph - N/A   Clear
12:30 PM 98.6 °F - 48.2 °F 18% 29.89 in - ENE 12.7 mph - N/A   Clear
1:00 PM 96.8 °F - 46.4 °F 18% 29.89 in - SE 9.2 mph - N/A   Clear
1:30 PM 98.6 °F - 46.4 °F 17% 29.86 in - SE 9.2 mph - N/A   Clear
2:00 PM 100.4 °F - 46.4 °F 16% 29.83 in - East 12.7 mph - N/A   Clear
2:30 PM 100.4 °F - 44.6 °F 15% 29.83 in - NE 15.0 mph - N/A   Clear
3:00 PM 103 °F - 60 °F 16%  in 6 mi SE 9.2 mph - -   Partly Cloudy
3:00 PM 102.2 °F - 44.6 °F 14% 29.80 in - ENE 15.0 mph - N/A   Clear
3:30 PM 102.2 °F - 44.6 °F 14% 29.80 in 6.2 mi East 13.8 mph - N/A   Unknown
4:00 PM 102.2 °F - 42.8 °F 13% 29.80 in 6.2 mi ENE 15.0 mph - N/A   Unknown
4:30 PM 102.2 °F - 42.8 °F 13% 29.80 in 6.2 mi ENE 13.8 mph - N/A   Unknown
5:00 PM 100.4 °F - 44.6 °F 15% 29.80 in 6.2 mi SE 10.4 mph - N/A   Unknown
5:30 PM 100.4 °F - 46.4 °F 16% 29.80 in 6.2 mi ENE 11.5 mph - N/A   Unknown
6:00 PM 98.6 °F - 46.4 °F 17% 29.80 in 6.2 mi East 11.5 mph - N/A   Unknown
6:30 PM 95.0 °F - 46.4 °F 19% 29.83 in 6.2 mi ESE 8.1 mph - N/A   Unknown
7:00 PM 93.2 °F - 46.4 °F 20% 29.83 in 6.2 mi ESE 5.8 mph - N/A   Unknown
7:30 PM 87.8 °F - 50.0 °F 27% 29.83 in 6.2 mi SE 5.8 mph - N/A   Unknown
8:00 PM 86.0 °F - 51.8 °F 31% 29.86 in 6.2 mi ESE 4.6 mph - N/A   Unknown
8:30 PM 82.4 °F - 51.8 °F 35% 29.86 in 6.2 mi SE 5.8 mph - N/A   Unknown
9:00 PM 80.6 °F - 51.8 °F 37% 29.86 in 6.2 mi ESE 5.8 mph - N/A   Unknown
9:30 PM 80.6 °F - 51.8 °F 37% 29.89 in 6.2 mi SE 5.8 mph - N/A   Unknown
10:00 PM 78.8 °F - 51.8 °F 39% 29.89 in 6.2 mi SE 5.8 mph - N/A   Unknown
10:30 PM 78.8 °F - 51.8 °F 39% 29.89 in 6.2 mi SE 5.8 mph - N/A   Unknown
11:00 PM 78.8 °F - 51.8 °F 39% 29.92 in 6.2 mi ESE 5.8 mph - N/A   Unknown
11:30 PM 86.0 °F - 50.0 °F 29% 29.92 in 6.2 mi ENE 9.2 mph - N/A   Unknown